Location: Fredericksburg
(30.2750°N, 98.8720°W)
Time: 17:10:45
(UTC-05:00)

ISS - All Passes

Search period start: 23 July 2014 00:00
Search period end: 02 August 2014 00:00
Orbit: 411 x 420 km, 51.6° (Epoch: 23 July)

Date Brightness Start Highest point End Pass type
(mag) Time Alt. Az. Time Alt. Az. Time Alt. Az.
23 Jul - 01:05:23 10° S 01:07:39 17° SE 01:09:57 10° E night (unlit)
23 Jul - 02:41:13 10° WSW 02:44:11 29° NW 02:47:09 10° NNE visible
23 Jul - 09:14:38 10° N 09:17:08 19° NE 09:19:38 10° E daylight
23 Jul - 10:50:55 10° WNW 10:53:51 29° SW 10:56:46 10° S daylight
24 Jul - 01:52:05 10° SW 01:55:21 57° NW 01:58:40 10° NE night (unlit)
24 Jul - 08:26:52 10° N 08:28:10 12° NNE 08:29:29 10° ENE daylight
24 Jul - 10:01:51 10° NW 10:05:10 62° SW 10:08:27 10° SSE daylight
25 Jul - 01:03:18 10° SW 01:06:36 66° SE 01:09:55 10° NE night (unlit)
25 Jul - 02:42:27 10° NW 02:43:37 11° NNW 02:44:47 10° NNW visible
25 Jul - 09:13:06 10° NW 09:16:25 60° NE 09:19:43 10° SE daylight
26 Jul - 00:14:57 10° SSW 00:17:55 30° SE 00:20:53 10° ENE night (unlit)
26 Jul - 01:52:13 10° W 01:54:39 19° NW 01:57:05 10° N night (unlit)
26 Jul - 08:24:35 10° NNW 08:27:35 30° NE 08:30:35 10° ESE daylight
26 Jul - 10:01:54 10° W 10:04:06 17° SW 10:06:17 10° SSW daylight
26 Jul - 23:27:16 10° SSE 23:29:16 15° SE 23:31:17 10° E night (unlit)
27 Jul - 01:02:43 10° WSW 01:05:45 32° NW 01:08:48 10° NNE night (unlit)
27 Jul - 07:36:20 10° N 07:38:41 18° NE 07:41:01 10° E daylight
27 Jul - 09:12:24 10° WNW 09:15:27 33° SW 09:18:29 10° SSE daylight
28 Jul - 00:13:38 10° SW 00:16:56 66° NW 00:20:15 10° NE night (unlit)
28 Jul - 06:48:50 10° NNE 06:49:42 11° NNE 06:50:33 10° NE daylight
28 Jul - 08:23:24 10° NW 08:26:45 73° SW 08:30:04 10° SE daylight
28 Jul - 23:24:55 10° SSW 23:28:11 56° SE 23:31:27 10° NE night (unlit)
29 Jul - 01:03:38 10° WNW 01:05:08 12° NW 01:06:39 10° N night (unlit)
29 Jul - 07:34:41 10° NW 07:37:58 52° NE 07:41:14 10° ESE daylight
29 Jul - 22:36:40 10° S 22:39:29 26° SE 22:42:20 10° ENE night (unlit)
30 Jul - 00:13:36 10° W 00:16:10 20° NW 00:18:45 10° NNE night (unlit)
30 Jul - 06:46:12 10° NNW 06:49:07 27° NE 06:52:01 10° E daylight
30 Jul - 08:23:14 10° W 08:25:41 19° SW 08:28:06 10° S daylight
30 Jul - 21:49:12 10° SSE 21:50:51 13° SE 21:52:31 10° E night (unlit)
30 Jul - 23:24:10 10° WSW 23:27:17 36° NW 23:30:24 10° NNE night (unlit)
31 Jul - 05:58:02 10° N 06:00:11 16° NE 06:02:21 10° ENE visible
31 Jul - 07:33:52 10° WNW 07:37:01 38° SW 07:40:08 10° SSE daylight
31 Jul - 22:35:09 10° SW 22:38:28 77° NW 22:41:48 10° NE night (unlit)
01 Aug - 06:44:56 10° NW 06:48:17 85° SW 06:51:37 10° SE daylight
01 Aug - 21:46:31 10° SSW 21:49:43 48° SE 21:52:57 10° NE visible
01 Aug - 23:24:51 10° WNW 23:26:37 14° NW 23:28:24 10° N visible
